Temp
15 13 14 14 13 15 15 15 14 15 17 17 16 15 16 14 14 11 10 10 10 10 9 10 9 10 9 10 10 9 10 10 9 9 9 10 10 10 10 11 11 11 11 13
14 13 16 15 14 14 14 14 14 15 17 16 15 15 16 12 13 12 10 11 12 10 9 9 8 9 9 9 9 10 9 9 9 8 9 9 10 10 9 10 10 11 12 12
14 15 16 15 15 15 14 14 14 14 16 16 17 15 17 15 14 13 11 12 14 14 10 9 9 9 9 9 9 9 9 9 8 8 8 9 9 9 9 10 10 11 11 11
13 16 15 15 15 15 14 16 16 16 15 15 17 14 15 15 13 12 11 11 12 14 14 10 10 10 9 9 8 9 10 9 8 8 8 9 9 8 9 10 11 11 11 12
13 14 15 15 15 16 16 17 16 15 15 15 16 14 14 14 13 12 11 11 12 13 15 14 13 11 11 10 10 10 10 10 9 9 9 9 9 8 9 10 10 11 11 11
14 16 15 16 17 16 17 16 16 14 14 13 15 14 13 13 15 15 13 12 12 13 13 15 14 11 12 12 11 11 11 11 10 9 9 9 10 10 10 10 10 11 11 10
14 14 15 17 15 16 15 15 12 12 13 12 14 13 14 16 16 16 14 13 13 13 13 13 14 14 13 12 12 11 11 11 10 10 9 10 10 10 10 10 11 11 11 12
13 13 15 15 15 15 14 14 12 14 11 13 14 13 15 16 18 18 19 18 14 12 15 15 15 14 14 14 14 12 12 12 12 11 10 10 11 11 11 12 12 12 12 13
12 12 16 16 17 16 15 14 16 14 13 12 13 14 16 16 17 18 16 15 15 14 15 16 16 16 16 15 15 15 13 13 12 12 11 11 11 11 11 12 12 12 12 12
13 13 15 16 16 16 17 16 15 12 13 12 13 14 14 16 19 18 15 15 15 15 15 15 16 16 16 16 15 14 13 13 12 11 11 11 11 11 11 11 11 12 12 12
10 11 13 16 14 14 15 16 15 15 12 14 12 12 14 15 16 18 17 17 17 16 16 17 17 17 16 15 14 14 14 13 13 12 11 11 11 11 11 11 12 12 12 12
9 10 11 13 15 16 16 16 16 13 14 12 11 13 16 15 15 16 18 20 18 17 19 18 18 17 15 15 14 14 13 13 13 13 12 12 12 12 12 12 12 11 11 11
7 8 9 13 14 16 15 15 16 14 12 12 12 13 16 16 15 18 18 20 22 21 17 18 17 16 16 16 14 14 14 14 13 13 13 13 12 12 13 13 12 12 12 10
7 7 9 11 13 14 15 16 16 15 12 13 13 15 16 16 15 17 19 20 20 21 21 21 19 18 19 18 17 16 16 16 14 14 13 13 13 13 13 13 12 12 11 11
6 7 10 12 14 16 16 15 15 15 14 14 15 15 16 15 16 17 21 22 21 20 20 20 20 21 20 19 19 18 18 17 16 15 14 14 14 13 13 12 12 12 12 11
6 7 7 11 12 15 16 16 15 14 15 14 15 15 16 17 18 17 19 20 20 22 22 20 21 21 21 21 20 20 19 19 18 16 15 14 13 12 12 12 11 11 10 11
5 6 7 9 13 13 12 13 15 16 15 16 14 15 17 15 15 16 19 19 21 20 21 21 22 21 21 21 20 20 19 18 16 15 14 14 13 13 12 11 10 10 10 10
6 6 5 7 10 10 13 14 15 15 16 15 16 17 16 16 19 20 20 21 21 20 20 21 22 21 21 20 19 19 18 17 17 15 15 14 13 13 10 10 10 10 9 9
8 7 6 7 9 10 13 13 14 14 14 16 16 17 17 18 17 18 20 21 22 22 21 20 20 20 20 19 19 18 17 16 15 14 13 11 10 10 10 9 10 9 9 9
8 8 7 6 8 8 11 14 15 14 12 15 16 16 15 15 14 14 19 20 20 19 19 19 19 18 17 17 17 16 14 13 12 11 11 10 10 9 8 9 8 8 8 7
6 6 7 7 7 7 9 11 13 10 11 14 17 16 16 14 15 19 19 19 19 19 18 18 17 16 15 14 14 13 12 11 10 10 9 9 8 8 7 7 7 7 6 5
6 6 6 6 5 6 12 12 13 11 14 16 17 19 17 20 20 19 17 18 18 17 16 15 15 13 12 11 11 10 10 9 9 8 7 7 6 6 6 6 6 5 4 4
6 7 7 7 7 9 12 14 15 14 14 15 14 17 18 19 17 16 16 16 15 15 14 12 12 11 9 9 8 8 7 7 7 6 6 6 6 4 4 4 4 3 2 1
8 9 8 8 10 9 12 13 14 13 15 15 16 14 16 16 14 13 13 13 13 12 11 10 10 9 8 7 6 6 5 5 5 5 4 4 3 3 2 2 1 1 0 -0
8 8 9 8 10 11 13 14 15 15 15 15 15 16 16 17 14 14 13 12 12 11 10 9 8 8 7 5 5 4 4 4 4 4 3 3 2 2 1 1 -1 -2 -3 -3
9 9 7 8 11 11 12 15 14 14 14 14 15 15 16 15 14 13 11 10 10 9 7 7 6 6 5 4 5 4 3 3 4 3 2 1 0 -1 -2 -3 -3 -3 -3 -3
Height
1464 1472 1467 1467 1474 1474 1476 1480 1480 1467 1456 1466 1458 1454 1443 1447 1448 1447 1447 1447 1451 1456 1455 1457 1460 1461 1463 1464 1467 1470 1471 1475 1481 1485 1490 1495 1498 1502 1508 1517 1521 1524 1529 1531
1465 1462 1453 1463 1469 1474 1476 1481 1478 1466 1456 1462 1454 1450 1441 1443 1441 1440 1443 1445 1447 1452 1452 1454 1458 1459 1463 1466 1468 1471 1474 1478 1481 1484 1490 1495 1498 1502 1509 1515 1519 1523 1527 1528
1459 1450 1451 1460 1464 1470 1471 1476 1473 1471 1457 1456 1452 1455 1442 1439 1441 1441 1444 1446 1445 1447 1449 1453 1455 1459 1459 1462 1467 1469 1473 1477 1482 1486 1491 1498 1500 1504 1508 1512 1517 1520 1523 1525
1455 1448 1449 1455 1459 1461 1469 1458 1461 1462 1468 1470 1451 1473 1450 1438 1441 1440 1442 1444 1444 1443 1445 1448 1452 1454 1458 1463 1465 1466 1471 1475 1481 1488 1492 1494 1497 1501 1506 1510 1514 1516 1518 1522
1446 1444 1447 1452 1447 1454 1456 1452 1458 1457 1460 1460 1456 1467 1451 1440 1443 1437 1436 1437 1441 1443 1443 1444 1447 1454 1457 1461 1462 1466 1470 1472 1478 1483 1487 1490 1493 1498 1503 1507 1509 1511 1515 1520
1441 1438 1441 1441 1439 1448 1445 1452 1452 1455 1457 1470 1456 1461 1454 1444 1430 1426 1428 1431 1434 1439 1442 1444 1447 1451 1454 1457 1460 1463 1466 1470 1474 1479 1483 1486 1490 1494 1498 1502 1504 1508 1513 1515
1441 1439 1439 1438 1444 1442 1448 1459 1477 1478 1471 1470 1455 1461 1444 1425 1420 1417 1418 1421 1426 1433 1439 1442 1443 1446 1449 1452 1457 1461 1466 1465 1470 1475 1478 1483 1486 1491 1494 1497 1500 1502 1506 1508
1446 1449 1437 1433 1437 1443 1445 1452 1470 1469 1477 1463 1452 1458 1438 1415 1410 1411 1409 1411 1420 1427 1432 1436 1439 1444 1447 1450 1453 1456 1458 1460 1466 1470 1473 1479 1482 1484 1488 1491 1494 1497 1500 1502
1444 1440 1423 1419 1425 1433 1437 1445 1437 1453 1455 1464 1454 1440 1424 1412 1408 1407 1407 1413 1416 1419 1425 1429 1435 1439 1444 1447 1449 1452 1455 1459 1464 1468 1473 1475 1478 1479 1483 1485 1488 1491 1495 1497
1433 1436 1421 1415 1418 1418 1422 1427 1445 1450 1461 1465 1453 1445 1441 1419 1409 1408 1408 1409 1412 1414 1420 1425 1429 1434 1437 1441 1447 1451 1455 1458 1463 1467 1469 1471 1473 1476 1479 1481 1482 1485 1488 1491
1443 1440 1429 1417 1419 1422 1426 1429 1427 1429 1442 1447 1459 1449 1419 1414 1407 1406 1405 1405 1407 1411 1414 1417 1420 1425 1429 1438 1440 1444 1449 1453 1458 1461 1464 1466 1467 1471 1474 1475 1476 1479 1483 1484
1447 1434 1431 1420 1410 1408 1410 1412 1417 1435 1436 1439 1445 1436 1408 1408 1404 1404 1402 1403 1406 1409 1409 1411 1414 1419 1424 1427 1433 1436 1441 1443 1447 1452 1457 1457 1461 1465 1467 1468 1470 1474 1475 1475
1453 1443 1438 1422 1417 1405 1411 1410 1410 1415 1423 1431 1441 1432 1403 1403 1404 1399 1402 1403 1404 1406 1410 1411 1414 1416 1418 1421 1425 1428 1432 1435 1441 1445 1448 1451 1452 1455 1456 1460 1464 1466 1468 1471
1451 1445 1435 1421 1414 1405 1407 1403 1404 1407 1425 1423 1417 1414 1405 1402 1402 1398 1398 1399 1401 1403 1406 1407 1409 1412 1414 1416 1419 1421 1423 1425 1430 1435 1439 1442 1443 1444 1449 1454 1456 1459 1458 1463
1451 1439 1423 1410 1401 1397 1397 1400 1401 1405 1405 1411 1406 1408 1399 1397 1397 1393 1394 1395 1396 1399 1402 1404 1405 1407 1409 1412 1414 1416 1418 1421 1423 1425 1429 1431 1436 1440 1444 1448 1450 1451 1452 1454
1444 1436 1427 1409 1397 1392 1393 1392 1394 1398 1399 1400 1399 1395 1389 1385 1388 1390 1388 1389 1392 1393 1395 1398 1400 1403 1406 1407 1409 1410 1412 1415 1417 1419 1422 1425 1430 1433 1437 1440 1442 1444 1445 1446
1439 1435 1426 1410 1395 1396 1405 1387 1389 1389 1390 1393 1399 1391 1383 1385 1385 1383 1381 1383 1383 1387 1391 1393 1396 1398 1400 1402 1405 1408 1410 1411 1413 1416 1419 1423 1426 1429 1430 1433 1436 1438 1440 1442
1430 1432 1431 1418 1402 1411 1383 1378 1381 1385 1382 1385 1387 1381 1380 1377 1374 1375 1376 1376 1378 1383 1387 1389 1392 1394 1397 1399 1402 1404 1406 1408 1410 1413 1417 1420 1422 1424 1426 1428 1431 1433 1435 1435
1417 1422 1425 1418 1406 1391 1382 1381 1382 1384 1381 1378 1379 1376 1374 1375 1371 1371 1371 1372 1375 1378 1383 1387 1390 1393 1396 1398 1399 1400 1403 1405 1407 1411 1414 1416 1419 1422 1424 1426 1428 1430 1430 1431
1406 1413 1416 1421 1416 1402 1384 1372 1376 1379 1388 1372 1371 1373 1374 1375 1381 1375 1370 1372 1375 1379 1383 1387 1390 1393 1395 1397 1398 1399 1401 1404 1407 1410 1413 1415 1417 1419 1422 1424 1426 1427 1427 1428
1408 1411 1408 1412 1411 1401 1381 1376 1379 1401 1390 1368 1363 1369 1366 1375 1370 1368 1369 1372 1376 1379 1383 1387 1391 1393 1396 1397 1398 1400 1403 1405 1409 1411 1414 1416 1418 1419 1421 1422 1423 1425 1426 1427
1406 1410 1410 1411 1417 1412 1373 1372 1378 1376 1367 1368 1366 1368 1366 1364 1366 1368 1372 1372 1374 1378 1382 1386 1389 1393 1395 1398 1400 1402 1405 1407 1409 1411 1413 1415 1416 1418 1419 1420 1422 1423 1424 1426
1408 1396 1398 1405 1401 1378 1374 1370 1370 1374 1372 1371 1369 1366 1363 1363 1364 1366 1369 1372 1375 1379 1383 1387 1390 1392 1395 1398 1401 1403 1406 1408 1409 1410 1413 1415 1416 1417 1419 1420 1422 1423 1425 1427
1390 1386 1392 1391 1379 1377 1371 1371 1371 1373 1370 1369 1370 1370 1362 1362 1366 1367 1371 1374 1377 1381 1384 1386 1389 1392 1394 1398 1400 1404 1406 1410 1412 1414 1415 1417 1418 1420 1421 1423 1424 1425 1427 1428
1388 1384 1383 1381 1373 1371 1367 1367 1367 1367 1368 1370 1371 1369 1363 1367 1369 1367 1376 1379 1379 1380 1383 1387 1389 1392 1394 1399 1402 1406 1409 1412 1414 1416 1417 1418 1419 1420 1421 1423 1424 1425 1426 1428
1379 1377 1379 1377 1369 1371 1367 1365 1363 1370 1365 1367 1369 1369 1368 1367 1367 1369 1375 1380 1380 1381 1384 1387 1391 1394 1397 1400 1404 1408 1411 1413 1414 1415 1417 1419 1420 1421 1423 1425 1427 1429 1430 1430
Wind_Speed
9 4 15 13 8 3 2 4 5 12 18 4 16 9 12 15 16 12 13 15 11 9 8 9 10 13 13 17 19 20 32 34 38 38 43 41 37 39 40 33 28 26 29 26
3 13 12 7 7 7 6 7 11 10 15 3 12 11 5 9 10 20 22 21 16 11 10 10 13 15 16 15 17 25 29 33 38 41 42 39 37 41 37 35 31 30 33 29
12 7 13 9 6 9 10 10 9 8 16 9 3 7 7 3 4 13 15 22 19 16 14 16 18 19 18 18 20 22 27 29 28 35 39 37 40 37 32 38 37 38 32 32
8 14 12 6 13 13 13 11 13 11 6 5 2 5 6 4 4 6 13 23 25 23 17 17 20 21 23 23 19 17 18 24 28 36 39 39 42 43 40 39 38 37 35 35
8 7 17 17 18 11 12 7 10 11 7 2 2 2 6 3 5 9 11 26 32 29 23 21 22 25 23 23 19 20 22 23 25 30 32 32 39 39 38 40 39 36 35 34
8 3 8 13 15 12 11 5 4 3 3 2 4 4 5 5 7 5 10 23 34 35 30 25 22 24 24 22 23 24 25 26 28 30 31 34 37 37 37 39 41 41 38 35
8 12 3 2 6 5 5 3 2 4 2 5 6 3 9 8 7 8 13 25 34 39 36 32 31 31 30 32 32 32 33 32 33 36 36 41 39 38 40 39 42 43 41 40
13 11 12 6 10 6 8 9 5 6 4 4 3 5 6 7 8 13 22 29 29 34 38 37 35 33 33 36 35 35 35 33 35 39 41 41 40 38 40 39 39 40 41 42
5 7 5 12 11 13 6 8 9 4 2 2 4 6 9 8 8 4 11 17 28 36 39 41 39 38 36 37 39 38 37 37 39 40 40 41 39 40 42 40 38 40 41 40
5 10 8 6 9 12 12 5 2 1 7 5 3 4 6 8 4 4 7 18 30 34 37 40 41 42 42 42 42 42 43 44 44 44 45 44 43 44 44 41 42 42 39 38
6 4 10 3 7 7 5 12 3 4 5 7 2 5 8 10 9 4 5 20 29 33 37 39 43 45 46 44 46 49 49 49 48 47 47 46 46 45 43 43 44 43 42 43
6 5 8 23 13 2 5 14 13 6 4 3 4 7 5 9 8 8 3 8 19 29 33 35 37 41 44 46 49 51 52 53 53 51 49 50 47 47 46 46 45 45 47 48
11 5 4 4 7 17 13 5 5 3 2 8 7 6 4 3 8 5 9 10 12 20 29 30 32 37 40 42 44 47 50 53 54 53 52 52 52 51 51 48 46 46 47 46
10 7 12 12 7 6 5 9 6 7 5 3 8 6 6 7 9 8 8 12 11 19 27 31 32 33 34 36 37 39 42 45 48 51 50 50 51 51 48 47 48 47 47 40
3 9 11 12 17 12 3 5 4 4 6 10 7 11 11 10 9 12 17 21 23 17 21 27 32 33 31 33 33 34 33 36 38 42 44 46 47 49 47 46 43 43 44 40
7 5 15 11 8 17 18 15 10 9 6 8 7 10 8 14 21 12 19 17 17 21 26 25 26 29 30 30 30 30 31 31 33 35 38 39 39 39 40 39 40 40 37 38
2 2 5 6 4 4 5 16 16 15 4 4 8 8 6 7 9 14 23 21 20 25 25 22 19 24 29 32 31 29 30 31 32 33 34 33 33 33 34 33 29 27 26 30
7 4 2 4 2 5 4 8 13 14 18 11 9 6 9 13 23 24 20 18 20 22 24 19 19 18 21 26 28 30 30 29 29 28 26 26 28 29 27 23 19 19 23 21
15 6 2 2 4 4 2 5 9 9 11 11 12 9 6 10 4 3 14 15 19 21 20 19 14 10 10 13 17 21 25 25 23 21 22 21 20 18 14 13 16 19 21 20
10 12 7 2 6 8 2 6 6 9 10 10 10 11 7 4 4 5 14 13 14 14 14 13 10 8 8 8 12 14 14 15 14 13 12 10 9 9 10 13 15 18 20 20
2 2 8 5 3 7 9 6 4 5 7 5 7 10 9 5 8 8 19 19 18 15 12 10 8 7 6 7 8 8 8 7 6 6 7 7 8 11 11 12 13 14 15 17
4 4 2 3 2 6 6 3 2 5 17 11 6 21 14 16 5 7 20 21 19 17 14 11 9 9 8 7 6 6 6 6 7 7 7 9 9 9 9 11 11 12 16 19
3 6 6 9 6 6 13 5 6 12 3 2 12 12 10 12 14 25 23 20 18 15 13 12 11 12 10 6 4 4 6 6 8 9 8 7 7 6 7 8 12 14 14 13
5 5 3 2 9 16 21 18 14 19 18 13 14 15 6 9 13 18 18 18 18 16 15 15 14 13 11 9 7 6 8 5 4 5 5 5 6 7 9 10 10 10 11 13
6 6 7 6 7 12 26 26 20 20 19 18 19 12 4 5 13 15 17 16 18 18 17 16 15 14 13 11 10 9 7 4 5 5 5 6 8 10 12 12 12 12 12 8
5 6 4 6 13 5 13 19 9 19 18 25 16 20 9 6 15 19 22 22 21 21 20 19 17 16 17 14 13 12 11 8 6 8 10 11 11 12 11 8 6 3 6 10
Wind_Direction
182 156 220 206 204 177 208 275 268 278 283 251 268 250 263 189 205 192 216 239 208 188 181 180 203 195 207 197 201 180 171 177 180 179 175 180 178 178 178 184 184 183 187 206
208 225 230 168 192 220 230 248 265 289 272 199 261 258 275 180 217 197 198 221 226 196 187 183 198 205 200 194 193 194 189 185 189 185 183 186 184 188 193 192 187 192 211 209
213 203 199 189 185 219 235 225 255 221 293 256 303 305 288 187 190 193 201 221 224 230 198 188 200 203 204 200 193 190 198 193 199 191 190 198 197 205 193 195 198 202 211 215
233 231 248 199 220 198 242 213 241 262 279 247 130 268 287 245 210 205 190 213 219 222 220 204 193 197 198 199 198 190 193 198 201 200 200 207 208 202 204 199 203 208 215 212
222 207 212 226 228 183 238 223 235 249 246 152 280 307 266 108 229 228 207 206 217 222 218 214 202 197 199 203 199 194 191 193 196 198 207 213 210 205 206 203 211 216 214 215
221 282 189 222 235 198 248 298 312 358 179 201 203 178 271 213 211 221 215 211 211 215 218 218 212 205 209 204 201 196 191 191 196 204 209 207 205 210 212 215 214 214 219 229
246 252 279 200 213 179 165 158 286 296 252 220 189 202 244 250 224 224 200 213 215 212 212 213 211 207 205 204 201 198 199 196 198 204 205 207 208 212 214 214 216 219 223 224
215 258 214 197 203 186 196 182 179 219 219 242 163 238 250 229 267 260 232 224 209 213 215 213 214 213 207 204 204 203 202 198 202 206 208 209 210 211 215 214 216 220 226 233
195 241 247 202 191 194 215 217 205 192 5 83 223 286 305 278 273 270 203 186 206 216 221 220 215 216 215 213 213 210 208 208 210 212 213 215 216 218 222 224 227 232 237 239
264 265 233 236 191 216 195 178 135 4 191 235 266 257 237 289 242 227 156 188 208 222 226 226 225 221 219 220 218 219 218 217 216 217 220 222 224 228 231 233 235 237 240 242
299 263 265 321 203 182 168 234 250 171 158 215 214 255 214 238 229 240 220 203 214 218 225 229 231 230 230 223 223 222 222 222 223 225 227 229 232 234 237 240 243 245 248 250
353 274 229 242 258 187 216 208 204 206 216 209 179 240 225 245 219 195 240 246 234 227 225 227 231 233 230 232 229 228 226 227 228 229 232 236 238 240 242 244 246 250 253 254
6 330 291 264 269 257 248 208 199 134 112 195 188 248 271 225 281 266 212 219 235 239 232 230 230 230 234 235 236 236 236 233 234 234 237 242 245 244 245 248 250 254 257 258
33 252 232 248 245 189 190 199 201 175 192 180 223 224 251 236 235 263 263 247 221 225 225 224 229 231 234 237 239 241 241 244 242 239 240 241 244 247 250 251 252 255 256 268
117 270 278 280 238 242 178 196 236 226 224 206 205 222 232 216 222 225 249 253 269 239 224 232 227 227 230 233 236 240 242 243 244 245 244 246 246 249 252 254 255 258 260 255
165 269 309 281 248 224 236 249 248 243 271 258 252 236 226 243 232 237 237 244 244 229 229 213 220 224 224 230 234 237 238 240 242 244 246 247 248 251 254 255 254 258 261 256
191 252 302 250 274 218 258 221 232 256 195 241 213 218 241 248 223 237 246 238 243 230 209 210 218 227 226 230 234 235 237 239 240 241 245 250 251 251 252 254 258 261 259 247
204 264 299 292 139 226 257 177 211 235 243 246 253 267 247 236 244 243 257 250 228 221 208 214 221 226 230 231 233 236 237 238 240 240 245 248 250 250 253 258 263 248 259 262
213 187 252 251 233 294 255 202 199 206 245 243 228 244 269 253 181 261 223 210 221 218 205 207 206 217 232 242 249 246 239 235 233 234 235 239 245 254 251 244 249 256 244 240
183 214 185 148 264 218 261 231 49 23 253 256 196 220 225 178 127 244 196 186 180 167 167 180 194 211 224 235 243 250 240 231 229 233 244 248 241 234 243 240 252 237 238 244
126 189 207 177 247 289 251 259 338 136 236 314 100 275 144 190 214 238 182 168 166 166 172 178 186 191 199 206 213 214 210 208 211 216 208 209 232 247 243 249 238 243 233 210
168 182 198 101 61 286 241 356 152 253 226 294 237 234 240 213 215 237 179 165 165 169 166 166 173 170 164 171 185 190 194 203 208 217 223 232 225 233 242 245 234 221 211 207
210 199 167 182 231 259 283 284 267 301 329 320 330 238 228 240 192 172 172 163 157 158 157 154 159 152 146 150 164 201 188 197 210 201 206 231 233 217 209 208 198 196 199 205
229 175 222 131 243 246 266 273 251 242 267 303 322 309 223 209 197 164 157 155 155 152 154 161 160 151 145 146 146 151 164 183 203 201 170 172 178 180 183 189 192 201 194 194
247 176 190 249 288 285 280 275 282 257 223 261 277 290 115 142 166 156 163 163 161 166 166 166 165 156 144 145 134 127 127 133 148 155 169 187 196 196 200 194 180 180 165 163
228 227 181 241 264 236 280 292 248 277 261 237 247 257 223 201 170 166 163 171 172 166 163 161 155 154 142 143 141 147 156 179 201 181 172 167 175 179 178 175 189 224 267 276